TimeMST,TemperatureF,Dew PointF,Humidity,Sea Level PressureIn,VisibilityMPH,Wind Direction,Wind SpeedMPH,Gust SpeedMPH,PrecipitationIn,Events,Conditions,WindDirDegrees,DateUTC
12:24 AM,3.9,-0.9,80,30.13,1.5,NW,21.9,-,0.00,Snow,Light Snow,310,2014-02-04 07:24:00
12:53 AM,3.9,-0.9,80,30.35,2.0,NW,16.1,-,0.00,Snow,Light Snow,310,2014-02-04 07:53:00
12:58 AM,3.0,-0.9,84,30.13,1.8,NW,17.3,-,0.00,Snow,Light Snow,310,2014-02-04 07:58:00
1:44 AM,3.0,-2.0,80,30.14,2.5,WNW,18.4,-,0.00,Snow,Light Snow,300,2014-02-04 08:44:00
1:53 AM,3.0,-2.9,76,30.38,2.5,WNW,19.6,-,0.00,Snow,Light Snow,300,2014-02-04 08:53:00
2:06 AM,3.0,-2.9,76,30.15,3.0,NW,18.4,-,0.00,Snow,Light Snow,310,2014-02-04 09:06:00
2:50 AM,1.4,-2.2,85,30.16,2.5,NW,16.1,-,0.00,Snow,Light Snow,310,2014-02-04 09:50:00
2:53 AM,1.9,-2.9,80,30.40,2.5,NW,19.6,-,0.00,Snow,Light Snow,310,2014-02-04 09:53:00
3:53 AM,1.9,-4.0,76,30.42,2.0,NW,18.4,-,0.00,Snow,Light Snow,320,2014-02-04 10:53:00
4:31 AM,-0.0,-5.1,79,30.19,3.0,NW,18.4,-,0.00,Snow,Light Snow,310,2014-02-04 11:31:00
4:53 AM,-0.0,-6.0,76,30.44,9.0,NW,17.3,-,0.00,,Overcast,310,2014-02-04 11:53:00
5:33 AM,-0.0,-6.0,76,30.21,2.5,NW,18.4,-,0.00,Snow,Light Snow,310,2014-02-04 12:33:00
5:53 AM,-0.0,-6.0,76,30.46,2.5,NW,16.1,-,0.00,Snow,Light Snow,310,2014-02-04 12:53:00
6:19 AM,-0.0,-6.0,76,30.22,4.0,WNW,16.1,-,0.00,Snow,Light Snow,300,2014-02-04 13:19:00
6:53 AM,-0.9,-7.1,75,30.50,10.0,WNW,16.1,-,0.00,,Overcast,300,2014-02-04 13:53:00
7:53 AM,-0.9,-8.0,72,30.53,6.0,NW,17.3,-,0.00,,Haze,310,2014-02-04 14:53:00
8:12 AM,-2.0,-8.0,76,30.26,2.5,WNW,16.1,-,0.00,Snow,Light Snow,300,2014-02-04 15:12:00
8:28 AM,-2.0,-8.0,76,30.27,6.0,NW,16.1,-,0.00,,Haze,310,2014-02-04 15:28:00
8:53 AM,-0.9,-7.1,75,30.56,1.8,NW,16.1,-,0.00,Snow,Light Snow,320,2014-02-04 15:53:00
9:05 AM,-0.9,-7.1,75,30.29,3.0,NW,12.7,-,0.00,Snow,Light Snow,310,2014-02-04 16:05:00
9:24 AM,-0.9,-7.1,75,30.29,7.0,NW,13.8,-,0.00,,Overcast,310,2014-02-04 16:24:00
9:49 AM,-0.4,-7.6,72,30.30,2.5,NW,12.7,-,0.00,,Haze,310,2014-02-04 16:49:00
9:53 AM,-0.9,-7.1,75,30.58,2.5,NW,12.7,-,0.00,,Haze,310,2014-02-04 16:53:00
10:00 AM,-0.9,-7.1,75,30.30,4.0,NW,13.8,-,N/A,,Haze,310,2014-02-04 17:00:00
10:53 AM,-0.0,-7.1,72,30.59,6.0,NW,13.8,-,N/A,,Haze,310,2014-02-04 17:53:00
11:25 AM,-0.0,-7.1,72,30.32,6.0,NW,13.8,-,N/A,,Haze,310,2014-02-04 18:25:00
11:53 AM,1.0,-7.1,69,30.59,9.0,NW,12.7,-,N/A,,Overcast,310,2014-02-04 18:53:00
12:40 PM,1.0,-7.1,69,30.31,10.0,NW,15.0,-,N/A,,Scattered Clouds,310,2014-02-04 19:40:00
12:53 PM,1.0,-7.1,69,30.58,10.0,NW,15.0,-,N/A,,Partly Cloudy,310,2014-02-04 19:53:00
1:53 PM,1.0,-6.0,72,30.58,6.0,NW,16.1,-,N/A,,Haze,320,2014-02-04 20:53:00
2:22 PM,1.0,-7.1,69,30.31,8.0,NW,13.8,-,N/A,,Overcast,310,2014-02-04 21:22:00
2:53 PM,1.9,-7.1,66,30.59,10.0,NW,13.8,-,N/A,,Overcast,310,2014-02-04 21:53:00
3:27 PM,1.9,-6.0,69,30.33,7.0,NW,12.7,-,N/A,,Overcast,310,2014-02-04 22:27:00
3:53 PM,1.0,-7.1,69,30.62,8.0,WNW,13.8,-,N/A,,Overcast,300,2014-02-04 22:53:00
4:14 PM,-0.0,-8.0,69,30.34,10.0,WNW,11.5,-,N/A,,Scattered Clouds,300,2014-02-04 23:14:00
4:53 PM,-0.0,-9.0,66,30.66,10.0,WNW,10.4,-,N/A,,Overcast,290,2014-02-04 23:53:00
5:19 PM,-0.9,-8.0,72,30.37,10.0,WNW,9.2,-,N/A,,Overcast,300,2014-02-05 00:19:00
5:48 PM,-0.4,-7.6,72,30.38,6.0,WNW,10.4,-,N/A,,Haze,290,2014-02-05 00:48:00
5:53 PM,-0.9,-7.1,75,30.67,6.0,WNW,10.4,-,N/A,,Haze,300,2014-02-05 00:53:00
6:17 PM,-2.0,-8.0,76,30.38,9.0,WNW,11.5,-,N/A,,Overcast,300,2014-02-05 01:17:00
6:53 PM,-2.0,-8.0,76,30.70,4.0,WNW,13.8,-,N/A,,Haze,290,2014-02-05 01:53:00
7:10 PM,-2.0,-8.0,76,30.40,2.5,WNW,13.8,-,0.00,Snow,Light Snow,300,2014-02-05 02:10:00
7:18 PM,-2.9,-8.0,79,30.40,1.5,WNW,13.8,-,0.00,Snow,Light Snow,300,2014-02-05 02:18:00
7:42 PM,-2.9,-9.0,75,30.40,2.5,WNW,11.5,-,0.01,Snow,Light Snow,300,2014-02-05 02:42:00
7:50 PM,-2.2,-9.4,71,30.40,3.0,NW,11.5,-,0.01,,Haze,310,2014-02-05 02:50:00
7:53 PM,-2.9,-9.0,75,30.71,3.0,WNW,12.7,-,0.01,,Haze,300,2014-02-05 02:53:00
8:32 PM,-5.1,-9.9,80,30.41,8.0,WNW,9.2,-,N/A,,Overcast,300,2014-02-05 03:32:00
8:53 PM,-6.0,-11.0,79,30.74,7.0,WNW,10.4,-,N/A,,Overcast,290,2014-02-05 03:53:00
9:01 PM,-6.0,-11.0,79,30.42,6.0,WNW,10.4,-,N/A,,Haze,290,2014-02-05 04:01:00
9:42 PM,-6.0,-11.9,75,30.43,5.0,WNW,10.4,-,N/A,,Haze,300,2014-02-05 04:42:00
9:53 PM,-7.1,-11.9,79,30.76,7.0,WNW,8.1,-,N/A,,Overcast,300,2014-02-05 04:53:00
10:04 PM,-7.1,-13.0,75,30.43,6.0,WNW,9.2,-,N/A,,Haze,290,2014-02-05 05:04:00
10:20 PM,-7.1,-11.9,79,30.44,10.0,WNW,9.2,-,N/A,,Overcast,300,2014-02-05 05:20:00
10:53 PM,-6.0,-11.9,75,30.76,4.0,WNW,9.2,-,N/A,,Haze,300,2014-02-05 05:53:00
11:00 PM,-7.1,-11.9,79,30.45,2.5,WNW,9.2,-,0.00,Snow,Light Snow,290,2014-02-05 06:00:00
11:22 PM,-8.0,-13.0,79,30.45,4.0,WNW,9.2,-,0.01,,Haze,300,2014-02-05 06:22:00
11:53 PM,-9.0,-14.1,79,30.78,10.0,WNW,8.1,-,0.01,,Overcast,300,2014-02-05 06:53:00